AirNav   Air Wisconsin pilot careers
 
 1369 users online  

L31 St Tammany Regional Airport
Covington, Louisiana, USA

GOING TO COVINGTON?


FAA INFORMATION EFFECTIVE 06 DECEMBER 2018

Location

FAA Identifier: L31
Lat/Long: 30-26-42.1950N / 089-59-19.9640W
30-26.703250N / 089-59.332733W
30.4450542 / -89.9888789
(estimated)
Elevation: 39 ft. / 11.9 m (surveyed)
Variation: 02E (1995)
From city: 6 miles SE of COVINGTON, LA
Time zone: UTC -6 (UTC -5 during Daylight Saving Time)
Zip code: 70471

Airport Operations

Airport use: Open to the public
Activation date: 02/1971
Control tower: no
ARTCC: HOUSTON CENTER
FSS: DE RIDDER FLIGHT SERVICE STATION
NOTAMs facility: DRI (NOTAM-D service available)
Attendance: MON-FRI 0800-1500
Wind indicator: lighted
Segmented circle: no
Lights: DUSK-DAWN. MIRL RY 18/36 PRESET MED INTST.
Beacon: white-green (lighted land airport)
Operates sunset to sunrise.

Airport Communications

CTAF/UNICOM: 122.8
NEW ORLEANS APPROACH: 133.15
NEW ORLEANS DEPARTURE: 133.15
WX ASOS at ASD (11 nm SE): 132.475 (985-643-7263)
WX AWOS-3PT at MJD (18 nm E): 119.075 (601-798-4136)

Nearby radio navigation aids

VOR radial/distance  VOR name  Freq  Var
PCUr237/15.1PICAYUNE VOR/DME112.2005E
HMUr101/(22.6)HAMMOND VOR109.6000E
HRVr359/35.7HARVEY VORTAC114.1002E
RQRr053/37.8RESERVE VOR/DME110.8002E

 
NDB name  Hdg/Dist  Freq  Var  ID
BOGALUSA194/27.035300WGVB --. ...- -...

Airport Services

Fuel available: 100LL
SELF SERVICE FUEL AVBL 24 HRS WITH CREDIT CARD.
Parking: hangars and tiedowns
Airframe service: MINOR
Powerplant service: MINOR

Runway Information

Runway 18/36

Dimensions: 2999 x 75 ft. / 914 x 23 m
Surface: asphalt, in fair condition
Weight bearing capacity: 
Single wheel: 17.5
Runway edge lights: medium intensity
Runway edge markings: MARKINGS FADED
RUNWAY 18  RUNWAY 36
Latitude: 30-26.950717N30-26.455950N
Longitude: 089-59.334133W089-59.333033W
Elevation: 39.0 ft.38.0 ft.
Traffic pattern: leftleft
Runway heading: 178 magnetic, 180 true358 magnetic, 360 true
Markings: nonprecision, in poor conditionnonprecision, in poor condition
Touchdown point: yes, no lightsyes, no lights
Obstructions: 70 ft. trees, 1241 ft. from runway, 22:1 slope to clear78 ft. trees, 2004 ft. from runway, 22:1 slope to clear

Airport Ownership and Management from official FAA records

Ownership: Publicly-owned
Owner: ST TAMMANY PARISH
PO BOX 628
COVINGTON, LA 70434
Phone 985-898-2362
Manager: BRUCE CROUCH
PO BOX 628
COVINGTON, LA 70434
Phone (985) 898-2792

Airport Operational Statistics

Aircraft based on the field: 16
Single engine airplanes: 13
Multi engine airplanes: 3
    
Aircraft operations: avg 70/day *
59% local general aviation
39% transient general aviation
2% air taxi
<1% military
* for 12-month period ending 20 March 2017

Additional Remarks

FOR CD CTC MSY APCH AT 504-471-4350.
PAJA AND SKYDIVING ACT ON WKENDS.

Instrument Procedures

There are no published instrument procedures at L31.

Some nearby airports with instrument procedures:

KASD - Slidell Airport (11 nm SE)
KMJD - Picayune Municipal Airport (18 nm E)
KHDC - Hammond Northshore Regional Airport (23 nm W)
KBXA - George R Carr Memorial Air Field (23 nm N)
KNEW - Lakefront Airport (24 nm S)
 
Loc | Ops | Rwys | IFR | FBO | Links
Com | Nav | Svcs | Stats | Notes


 
Area around L31 (St Tammany Regional Airport)
 
Road maps at: MapQuest Bing Google
 
Aerial photo
WARNING: Photo may not be current or correct
Aerial photo of L31 (St Tammany Regional Airport)
Photo by J. Shaw
Photo taken 27-May-2011
looking northeast.

Do you have a better or more recent aerial photo of St Tammany Regional Airport that you would like to share? If so, please send us your photo.

 
Sectional chart

 
Airport distance calculator
Flying to St Tammany Regional Airport? Find the distance to fly.

From to L31

Sunrise and sunset
Times for 18-Dec-2018
 Local
(UTC-6)
 Zulu
(UTC)
Morning civil twilight06:2612:26
Sunrise06:5212:52
Sunset17:0123:01
Evening civil twilight17:2823:28

Current date and time
Zulu (UTC)  18-Dec-2018 17:51:53
Local (UTC-6)  18-Dec-2018 11:51:53
 
METAR
KASD 
16nm SE 
181653Z AUTO 06004KT 10SM CLR 18/09 A3017 RMK AO2 SLP215 T01780094
KHDC 
23nm W 
181735Z AUTO 00000KT 10SM CLR 15/10 A3015 RMK AO2
KBXA 
23nm N 
181735Z AUTO 00000KT 10SM CLR 17/10 A3017 RMK AO2 T01700102
KNEW 
24nm S 
181653Z 02004KT CLR 14/ A3018 RMK AO2 SLP213 T0144 $
KHSA 
28nm E 
181650Z 00000KT 7SM CLR 17/11 A3017
KMSY 
30nm SW 
181653Z 03005KT 10SM SCT150 BKN250 17/11 A3017 RMK AO2 SLP218 T01720106
K7N0 
30nm S 
181656Z AUTO 03005KT 10SM CLR 17/09 A3018 RMK AO2 SLP219 T01670094
TAF
KASD 
16nm SE 
181406Z 1814/1912 01003KT 1/2SM FG OVC001 FM181500 00000KT P6SM FEW240 FM190900 VRB03KT 1 1/2SM BR OVC230 FM191000 VRB03KT 1/2SM FG BKN250
NOTAMs
Click for the latest NOTAMs
NOTAMs are issued by the DoD/FAA and will open in a separate window not controlled by AirNav.

 

 
 

FBO, Fuel Providers, and Aircraft Ground Support

  
 Business Name 
 
 Contact 
 
 Services / Description 
 
Fuel Prices
 
Comments
  
St. Tammany Parish Government 985-875-2601
no information available

If you are affiliated with St. Tammany Parish Government and would like to show here your services, contact info, web link, logo, and more, click here
100LL
SS $4.75 
 Updated 29-Nov-2018
 
   write
SS=Self service
Update Fuel Prices
 

Would you like to see your business listed on this page?

 If your business provides an interesting product or service to pilots, flight crews, aircraft, or users of the St Tammany Regional Airport, you should consider listing it here.  To start the listing process, click on the button below
 
Add a business
 

Other Pages about St Tammany Regional Airport

Update a link
 
Copyright © AirNav, LLC. All rights reserved. Privacy Policy  Contact